RH
40 41 42 43 44 45 45 46 43 44 42 45 48 49 50 56 61 63 69 71 74 76
40 41 44 44 44 46 43 40 41 45 47 47 47 48 51 54 56 56 61 66 71 74
43 43 44 44 44 44 44 45 46 47 48 48 48 48 48 49 51 54 57 57 62 64
46 45 44 44 44 44 48 48 50 50 51 50 50 49 50 50 50 51 53 54 57 58
47 45 45 44 44 47 48 51 51 51 52 52 52 52 53 55 52 53 54 53 54 55
52 47 48 48 48 50 52 53 52 52 55 56 58 58 57 57 56 55 54 54 55 54
61 54 52 53 54 55 54 57 56 56 55 57 57 59 62 59 60 60 57 59 60 58
68 60 56 56 58 59 59 57 58 60 59 58 57 54 62 64 64 66 67 64 60 62
79 74 65 60 62 64 64 62 62 62 63 63 54 65 68 68 78 78 74 77 67 62
86 84 80 70 68 67 68 66 68 67 64 65 66 69 69 69 67 84 83 73 74 68
85 87 85 85 80 76 73 75 74 71 69 66 60 69 69 70 72 84 77 70 66 67
86 90 89 89 88 84 85 80 75 71 70 69 68 70 69 68 73 81 71 64 58 61
88 89 91 88 89 88 88 87 74 72 70 72 67 70 70 67 76 86 78 63 59 65
87 88 88 88 87 89 91 88 87 83 78 70 66 66 72 68 62 71 69 63 67 59
Wind_Speed
13 10 11 12 12 11 11 11 16 15 16 17 16 15 14 11 11 13 11 13 12 10
12 14 13 16 14 11 15 13 16 17 17 17 17 17 16 12 14 13 12 13 12 11
14 14 14 14 16 16 15 17 17 17 17 17 17 17 17 14 15 15 12 11 14 12
14 15 15 14 15 15 16 16 17 17 17 18 18 17 17 17 17 18 16 16 15 16
15 16 15 15 16 16 17 16 17 17 18 18 18 18 18 18 17 18 18 17 17 16
16 16 16 17 17 17 17 17 17 17 18 18 17 18 19 19 19 18 19 18 18 17
15 16 16 17 17 17 16 18 18 17 18 18 18 18 19 19 18 19 18 18 18 18
15 16 17 17 17 17 17 17 18 19 18 18 17 14 17 19 18 18 19 19 19 19
14 15 17 17 17 17 18 18 18 18 18 19 14 26 30 27 18 19 18 18 19 19
13 15 15 17 17 18 18 18 18 18 18 20 19 29 31 31 18 17 17 19 18 18
13 14 16 16 17 18 16 17 17 18 18 19 17 30 31 30 19 17 19 21 21 21
14 15 16 17 17 17 16 17 17 17 18 19 18 29 31 28 18 17 21 19 21 21
14 15 16 17 17 16 16 17 15 18 18 22 19 27 31 27 14 17 14 18 20 31
15 16 16 17 15 16 16 16 16 17 16 18 19 19 29 29 16 14 15 16 16 15
Wind_Direction
320 316 312 310 309 303 304 301 307 304 305 303 300 298 296 291 289 285 280 279 277 278
318 315 308 307 304 301 300 298 301 302 299 299 296 294 293 288 286 283 282 280 277 274
315 311 308 305 301 301 299 299 299 297 296 295 293 292 289 288 285 283 279 277 275 274
312 310 306 302 301 300 300 299 295 295 293 292 291 289 286 284 284 280 280 275 270 271
312 311 307 304 304 303 299 296 294 291 288 287 286 287 283 283 281 280 281 280 277 275
311 311 309 307 305 302 298 294 292 291 288 284 282 283 283 280 280 277 276 277 277 277
310 311 307 305 303 300 297 294 291 288 287 285 281 277 276 278 279 275 274 276 276 275
309 308 306 304 303 300 297 294 291 288 285 283 279 274 270 270 272 272 269 267 265 264
301 301 303 305 304 299 296 294 291 289 287 285 279 279 278 277 272 273 271 269 268 266
297 299 303 301 301 299 297 295 293 289 287 283 282 284 282 279 274 271 271 268 265 265
303 301 300 299 298 296 295 295 293 291 286 289 286 287 288 286 281 274 269 268 270 264
304 300 301 300 299 296 295 294 293 292 295 291 290 292 290 289 282 273 270 267 268 266
300 300 298 300 298 296 292 290 299 298 292 290 293 291 291 290 280 276 274 276 270 266
298 298 298 298 298 296 294 299 297 294 292 292 288 287 291 294 288 282 282 278 273 264